ATLAS 5 CENTAUR DEB, 44673

Orbit data source: Space-Track

ATLAS 5 CENTAUR DEB, 44673 is space debris in HEO originally from a launch on Wed, 17 Oct 2018 UTC launched from the Air Force Eastern Test Range (AFETR). Debris objects in space refer to the collection of defunct objects orbiting the Earth. Examples of debris include non-operational satellites, rocket bodies, and fragments generated from explosions, collisions, or faulty payload assembly.

Loading next visibility...
Identifier
44673, 2018-079AK
Orbit
HEO
Country
Flag of USUS
Related business
Flag of USUnited Launch Alliance/Lockheed Martin (US)
Manufacturer
ULA Decatur
Mission
Spacecraft
Bus & Motor
Unknown
Mass
Unknown
Launch date (UTC)
2018-10-17 (8 years ago)
Launch vehicle
Unknown
Launch site
Air Force Eastern Test Range (AFETR)
Object type
Payload
Rocket body
Debris
Shape & HBR
Unknown shape, 1.1 m
Radar Cross Section
Medium (>0.1 m² and <1 m²)

Expand to show TLE details & history
Last TLE update: 3 days ago

TLE from 3 days ago
0 ATLAS 5 CENTAUR DEB
1 44673U 18079AK  26170.19819008 -.00000104  00000-0  00000-0 0  9997
2 44673  13.3718  43.3524 4707123 295.7072  23.4502  1.77546352 49904
Epoch: 2026-06-19T04:45Z
TLE epoch observation values (Epoch: 2026-06-19T04:45:23.622Z)
Latitude
0.00009°
Longitude
64.55045°
Altitude
12,277.484 km
Speed
5.376 km/s
True Right ascension
02h 53m 19s
True Declination
0° 00' 00"
Sunlit
Object was in daylight at epoch
Visualization orbit readout
Latitude
Unknown
Longitude
Unknown
Altitude
Unknown
Speed
Unknown
Apparent Right ascension
Unknown
Apparent Declination
Unknown
Sunlit
N/A
Visualization observer readout
Local Sidereal Time
21:35:05
Azimuth
Unknown
Elevation
Unknown
Doppler factor
Unknown
Orbital elements
Apogee altitude
35,994.568 km
Perigee altitude
8,871.176 km
Semi-major axis
28,811.009 km
Eccentricity
0.47071
Inclination
13.3718°
RAAN
43.3524°
Arg. of periapsis
295.7072°
True anomaly
64.17071°
Mean anomaly
23.4502°
Eccentric anomaly
41.22313°
Mean motion
0.44382 °/min
Orbital period
811.14 mins
BSTAR
0
Loading maneuver chart data...
Computing Atmospheric mass density...

Documentation

Showing up to 5 results
|